Location: Zilina
(0.0000°N, 18.7333°E)
Time: 05:56:50
(UTC+02:00)

Milstar 3 - Pass Details

Date: 19 February 2019
Orbit: 1111 x 5134 km, 28.2° (Epoch: 06 September)

Event Time Altitude Azimuth Distance (km) Brightness Sun altitude
Rises 18:33:44 0° 303° (WNW) 5,456 7.1 -8.5°
Reaches altitude 10° 18:37:49 10° 305° (NW) 3,990 6.3 -9.5°
Maximum altitude 18:46:57 74° 29° (NNE) 1,267 3.0 -11.8°
Drops below altitude 10° 18:53:36 10° 114° (ESE) 2,965 4.5 -13.4°
Enters shadow 18:53:38 10° 114° (ESE) 2,977 4.6 -13.4°
